This demonstration page uses our WeatherBlox Daily Observations layout. Learn more.

Left ArrowRight Arrow

39.08367, -84.50855

Hourly Observations for May 2, 2020

Temp ( °F °C ) Dew Point ( °F °C ) Humidity (%) Winds ( mph kmh ) Pressure ( in mb ) Visibility ( mi km ) Precip ( " mm )
12:53 am 00:53 Clear 50 10 46 7.8 86 86 Calm 30.06 1018 10 16.0934 0 0
1:53 am 01:53 Clear 50 10 48 8.9 93 93 SE 3 6 30.06 1018 10 16.0934 0 0
2:53 am 02:53 Clear 50 10 47 8.3 89 89 NE 3 6 30.08 1019 10 16.0934 0 0
3:53 am 03:53 Mostly Cloudy with Light Rain 51 10.6 48 8.9 89 89 Calm 30.05 1018 10 16.0934 0.001 0.001
4:53 am 04:53 Partly Cloudy 51 10.6 49 9.4 92 92 Calm 30.06 1018 10 16.0934 0.001 0.001
5:53 am 05:53 Cloudy 52 11.1 49 9.4 89 89 Calm 30.07 1018 10 16.0934 0.001 0.001
6:53 am 06:53 Cloudy 53 11.7 49 9.4 86 86 W 3 6 30.08 1019 10 16.0934 0 0
7:53 am 07:53 Cloudy 55 12.8 49 9.4 80 80 SSW 5 7 30.09 1019 10 16.0934 0 0
8:53 am 08:53 Sunny 57 13.9 49 9.4 74 74 SSW 7 11 30.09 1019 10 16.0934 0 0
9:53 am 09:53 Sunny 64 17.8 50 10 60 60 VRB 6 9 30.07 1018 10 16.0934 0 0
10:53 am 10:53 Sunny 69 20.6 50 10 51 51 S 12 19 30.04 1017 10 16.0934 0 0
11:53 am 11:53 Sunny 75 23.9 52 11.1 45 45 S 10 17 30.01 1016 10 16.0934 0 0
12:53 pm 12:53 Sunny 79 26.1 54 12.2 42 42 SSW 18 30 29.97 1015 10 16.0934 0 0
1:53 pm 13:53 Sunny 80 26.7 55 12.8 42 42 SW 17 28 29.94 1014 10 16.0934 0 0
2:53 pm 14:53 Sunny 81 27.2 55 12.8 41 41 SSW 16 26 29.92 1013 10 16.0934 0 0
3:53 pm 15:53 Mostly Cloudy 80 26.7 55 12.8 42 42 SW 9 15 29.91 1013 10 16.0934 0 0
4:53 pm 16:53 Mostly Cloudy 81 27.2 55 12.8 41 41 SW 17 28 29.89 1012 10 16.0934 0 0
5:53 pm 17:53 Partly Cloudy 82 27.8 57 13.9 42 42 WSW 12 19 29.89 1012 10 16.0934 0 0
6:53 pm 18:53 Cloudy 79 26.1 57 13.9 47 47 SW 13 20 29.89 1012 10 16.0934 0 0
7:53 pm 19:53 Partly Cloudy 76 24.4 57 13.9 52 52 SSW 10 17 29.88 1012 10 16.0934 0 0
8:53 pm 20:53 Partly Cloudy 72 22.2 57 13.9 59 59 SSW 8 13 29.9 1012 10 16.0934 0 0
9:53 pm 21:53 Clear 68 20 57 13.9 68 68 SSW 7 11 29.91 1013 10 16.0934 0 0
10:53 pm 22:53 Clear 67 19.4 57 13.9 71 71 SSW 6 9 29.92 1013 10 16.0934 0 0
11:53 pm 23:53 Clear 65 18.3 57 13.9 76 76 Calm 29.91 1013 10 16.0934 0 0

Powered by AerisWeather